Time,TemperatureF,DewpointF,PressureIn,WindDirection,WindDirectionDegrees,WindSpeedMPH,WindSpeedGustMPH,Humidity,HourlyPrecipIn,Conditions,Clouds,dailyrainin,SolarRadiationWatts/m^2,SoftwareType,DateUTC
2018-02-18 00:00:00,21.0,19.0,30.14,SW,234,0.9,4.0,92,0.00,,,0.00,0.0,meteobridge,2018-02-18 06:00:00,
2018-02-18 00:05:00,20.8,18.9,30.13,WSW,242,0.9,3.0,92,0.00,,,0.00,0.0,meteobridge,2018-02-18 06:05:00,
2018-02-18 00:10:00,20.8,18.9,30.13,WSW,244,2.0,4.0,92,0.00,,,0.00,0.0,meteobridge,2018-02-18 06:10:00,
2018-02-18 00:20:00,21.2,19.2,30.14,SW,232,0.0,2.0,92,0.00,,,0.00,0.0,meteobridge,2018-02-18 06:20:00,
2018-02-18 00:25:00,21.2,19.2,30.14,SW,232,0.0,2.0,92,0.00,,,0.00,0.0,meteobridge,2018-02-18 06:25:00,
2018-02-18 00:30:00,21.0,19.0,30.13,SW,232,0.9,2.0,92,0.00,,,0.00,0.0,meteobridge,2018-02-18 06:30:00,
2018-02-18 00:35:00,20.8,18.9,30.14,SW,232,2.0,2.0,92,0.00,,,0.00,0.0,meteobridge,2018-02-18 06:35:00,
2018-02-18 00:40:00,20.8,18.9,30.14,SW,232,0.9,2.0,92,0.00,,,0.00,0.0,meteobridge,2018-02-18 06:40:00,
2018-02-18 00:45:00,20.7,18.7,30.14,SW,232,2.0,3.0,92,0.00,,,0.00,0.0,meteobridge,2018-02-18 06:45:00,
2018-02-18 00:51:00,20.7,18.7,30.15,WSW,249,0.9,3.0,92,0.00,,,0.00,0.0,meteobridge,2018-02-18 06:51:00,
2018-02-18 00:56:00,20.7,18.7,30.16,WSW,249,2.0,3.0,92,0.00,,,0.00,0.0,meteobridge,2018-02-18 06:56:00,
2018-02-18 01:01:00,20.7,19.0,30.16,SW,234,0.9,3.0,93,0.00,,,0.00,0.0,meteobridge,2018-02-18 07:01:00,
2018-02-18 01:06:00,20.8,19.2,30.17,SW,230,2.0,3.0,93,0.00,,,0.00,0.0,meteobridge,2018-02-18 07:06:00,
2018-02-18 01:11:00,20.8,19.2,30.17,SW,231,0.9,2.0,93,0.00,,,0.00,0.0,meteobridge,2018-02-18 07:11:00,
2018-02-18 01:16:00,21.0,19.4,30.17,SW,230,2.0,3.0,93,0.00,,,0.00,0.0,meteobridge,2018-02-18 07:16:00,
2018-02-18 01:21:00,21.4,19.8,30.17,SW,230,0.9,2.0,93,0.00,,,0.00,0.0,meteobridge,2018-02-18 07:21:00,
2018-02-18 01:26:00,21.7,20.1,30.17,SW,227,2.0,3.0,93,0.00,,,0.00,0.0,meteobridge,2018-02-18 07:26:00,
2018-02-18 01:31:00,21.7,20.1,30.18,SW,220,2.0,2.0,93,0.00,,,0.00,0.0,meteobridge,2018-02-18 07:31:00,
2018-02-18 01:36:00,21.7,20.1,30.18,SW,215,2.0,3.0,93,0.00,,,0.00,0.0,meteobridge,2018-02-18 07:36:00,
2018-02-18 01:41:00,21.9,20.1,30.18,SSW,193,2.9,4.0,93,0.00,,,0.00,0.0,meteobridge,2018-02-18 07:41:00,
2018-02-18 01:46:00,21.9,20.1,30.19,SSW,192,4.0,5.0,93,0.00,,,0.00,0.0,meteobridge,2018-02-18 07:46:00,
2018-02-18 01:51:00,21.9,20.1,30.19,SSW,195,2.0,5.0,93,0.00,,,0.00,0.0,meteobridge,2018-02-18 07:51:00,
2018-02-18 01:56:00,21.7,20.1,30.19,South,191,0.9,4.0,93,0.00,,,0.00,0.0,meteobridge,2018-02-18 07:56:00,
2018-02-18 02:01:00,21.9,20.1,30.19,South,191,2.9,4.0,93,0.00,,,0.00,0.0,meteobridge,2018-02-18 08:01:00,
2018-02-18 02:07:00,21.7,20.1,30.19,South,190,0.9,1.0,93,0.00,,,0.00,0.0,meteobridge,2018-02-18 08:07:00,
2018-02-18 02:12:00,21.6,19.6,30.20,SSW,194,2.9,4.0,92,0.00,,,0.00,0.0,meteobridge,2018-02-18 08:12:00,
2018-02-18 02:17:00,21.6,19.9,30.19,SSW,200,2.0,3.0,93,0.00,,,0.00,0.0,meteobridge,2018-02-18 08:17:00,
2018-02-18 02:22:00,21.6,19.9,30.20,SSW,200,0.0,0.0,93,0.00,,,0.00,0.0,meteobridge,2018-02-18 08:22:00,
2018-02-18 02:27:00,21.4,19.4,30.19,SSW,200,0.0,1.0,92,0.00,,,0.00,0.0,meteobridge,2018-02-18 08:27:00,
2018-02-18 02:32:00,21.0,19.0,30.19,SSW,208,0.9,2.0,92,0.00,,,0.00,0.0,meteobridge,2018-02-18 08:32:00,
2018-02-18 02:37:00,20.7,18.5,30.19,SSW,208,0.0,1.0,91,0.00,,,0.00,0.0,meteobridge,2018-02-18 08:37:00,
2018-02-18 02:42:00,20.5,18.5,30.19,SW,220,0.0,1.0,92,0.00,,,0.00,0.0,meteobridge,2018-02-18 08:42:00,
2018-02-18 02:47:00,20.7,19.0,30.19,SW,220,0.9,2.0,93,0.00,,,0.00,0.0,meteobridge,2018-02-18 08:47:00,
2018-02-18 02:52:00,20.7,19.0,30.20,SW,225,2.9,3.0,93,0.00,,,0.00,0.0,meteobridge,2018-02-18 08:52:00,
2018-02-18 02:57:00,20.8,19.2,30.20,SW,225,0.9,2.0,93,0.00,,,0.00,0.0,meteobridge,2018-02-18 08:57:00,
2018-02-18 03:02:00,21.4,19.8,30.20,SSW,194,2.0,3.0,93,0.00,,,0.00,0.0,meteobridge,2018-02-18 09:02:00,
2018-02-18 03:08:00,21.6,19.9,30.20,South,187,2.0,4.0,93,0.00,,,0.00,0.0,meteobridge,2018-02-18 09:08:00,
2018-02-18 03:14:00,20.8,18.9,30.19,South,183,2.0,3.0,92,0.00,,,0.00,0.0,meteobridge,2018-02-18 09:14:00,
2018-02-18 03:19:00,19.6,17.4,30.19,South,183,2.0,3.0,91,0.00,,,0.00,0.0,meteobridge,2018-02-18 09:19:00,
2018-02-18 03:24:00,18.3,16.2,30.19,South,178,2.0,3.0,91,0.00,,,0.00,0.0,meteobridge,2018-02-18 09:24:00,
2018-02-18 03:29:00,18.0,16.0,30.19,South,178,2.9,3.0,92,0.00,,,0.00,0.0,meteobridge,2018-02-18 09:29:00,
2018-02-18 03:34:00,18.0,16.3,30.19,South,176,2.0,3.0,93,0.00,,,0.00,0.0,meteobridge,2018-02-18 09:34:00,
2018-02-18 03:39:00,18.0,16.3,30.19,South,175,2.0,2.0,93,0.00,,,0.00,0.0,meteobridge,2018-02-18 09:39:00,
2018-02-18 03:44:00,18.0,16.3,30.19,South,175,0.9,3.0,93,0.00,,,0.00,0.0,meteobridge,2018-02-18 09:44:00,
2018-02-18 03:50:00,18.0,16.3,30.20,South,175,0.0,2.0,93,0.00,,,0.00,0.0,meteobridge,2018-02-18 09:50:00,
2018-02-18 03:55:00,18.0,16.3,30.21,South,175,0.9,2.0,93,0.00,,,0.00,0.0,meteobridge,2018-02-18 09:55:00,
2018-02-18 04:00:00,18.0,16.3,30.21,South,175,0.9,2.0,93,0.00,,,0.00,0.0,meteobridge,2018-02-18 10:00:00,
2018-02-18 04:05:00,18.1,16.5,30.21,South,175,0.9,3.0,93,0.00,,,0.00,0.0,meteobridge,2018-02-18 10:05:00,
2018-02-18 04:10:00,18.1,16.5,30.21,South,175,0.9,1.0,93,0.00,,,0.00,0.0,meteobridge,2018-02-18 10:10:00,
2018-02-18 04:15:00,18.1,16.7,30.22,South,175,0.0,0.0,94,0.00,,,0.00,0.0,meteobridge,2018-02-18 10:15:00,
2018-02-18 04:20:00,18.0,16.3,30.22,South,175,0.0,1.0,93,0.00,,,0.00,0.0,meteobridge,2018-02-18 10:20:00,
2018-02-18 04:25:00,17.2,15.3,30.22,South,175,0.9,1.0,92,0.00,,,0.00,0.0,meteobridge,2018-02-18 10:25:00,
2018-02-18 04:30:00,17.1,15.4,30.22,South,175,0.0,1.0,93,0.00,,,0.00,0.0,meteobridge,2018-02-18 10:30:00,
2018-02-18 04:35:00,17.1,15.4,30.23,South,175,0.0,1.0,93,0.00,,,0.00,0.0,meteobridge,2018-02-18 10:35:00,
2018-02-18 04:40:00,17.2,15.8,30.24,South,175,0.0,1.0,94,0.00,,,0.00,0.0,meteobridge,2018-02-18 10:40:00,
2018-02-18 04:45:00,17.1,15.4,30.24,South,175,0.9,2.0,93,0.00,,,0.00,0.0,meteobridge,2018-02-18 10:45:00,
2018-02-18 04:50:00,16.9,15.3,30.24,South,175,0.9,2.0,93,0.00,,,0.00,0.0,meteobridge,2018-02-18 10:50:00,
2018-02-18 04:55:00,17.2,15.8,30.24,South,175,0.9,1.0,94,0.00,,,0.00,0.0,meteobridge,2018-02-18 10:55:00,
2018-02-18 05:00:00,16.9,15.3,30.24,South,175,0.0,1.0,93,0.00,,,0.00,0.0,meteobridge,2018-02-18 11:00:00,
2018-02-18 05:05:00,16.3,14.7,30.24,South,175,0.0,0.0,93,0.00,,,0.00,0.0,meteobridge,2018-02-18 11:05:00,
2018-02-18 05:11:00,15.8,13.8,30.24,South,175,0.0,1.0,92,0.00,,,0.00,0.0,meteobridge,2018-02-18 11:11:00,
2018-02-18 05:16:00,15.6,14.0,30.24,South,180,2.0,4.0,93,0.00,,,0.00,0.0,meteobridge,2018-02-18 11:16:00,
2018-02-18 05:21:00,16.3,14.9,30.24,South,171,4.0,4.0,94,0.00,,,0.00,0.0,meteobridge,2018-02-18 11:21:00,
2018-02-18 05:26:00,15.8,14.2,30.23,SSE,168,0.9,4.0,93,0.00,,,0.00,0.0,meteobridge,2018-02-18 11:26:00,
2018-02-18 05:31:00,15.3,13.6,30.23,SSE,168,0.9,2.0,93,0.00,,,0.00,0.0,meteobridge,2018-02-18 11:31:00,
2018-02-18 05:36:00,14.9,13.3,30.23,SSE,168,2.0,4.0,93,0.00,,,0.00,0.0,meteobridge,2018-02-18 11:36:00,
2018-02-18 05:41:00,14.7,13.1,30.22,SSE,168,2.0,4.0,93,0.00,,,0.00,0.0,meteobridge,2018-02-18 11:41:00,
2018-02-18 05:46:00,15.1,13.6,30.22,SSE,168,4.0,4.0,94,0.00,,,0.00,0.0,meteobridge,2018-02-18 11:46:00,
2018-02-18 05:51:00,15.3,13.8,30.22,SSE,168,2.0,2.0,94,0.00,,,0.00,0.0,meteobridge,2018-02-18 11:51:00,
2018-02-18 05:56:00,15.4,14.0,30.22,SSE,168,0.0,1.0,94,0.00,,,0.00,0.0,meteobridge,2018-02-18 11:56:00,
2018-02-18 06:01:00,15.6,14.2,30.21,SSE,168,2.0,4.0,94,0.00,,,0.00,0.0,meteobridge,2018-02-18 12:01:00,
2018-02-18 06:06:00,15.6,14.2,30.21,SSE,159,4.0,5.0,94,0.00,,,0.00,0.0,meteobridge,2018-02-18 12:06:00,
2018-02-18 06:11:00,15.4,13.8,30.19,ESE,123,2.0,3.0,93,0.00,,,0.00,0.0,meteobridge,2018-02-18 12:11:00,
2018-02-18 06:16:00,15.3,13.6,30.20,ESE,123,2.0,3.0,93,0.00,,,0.00,0.0,meteobridge,2018-02-18 12:16:00,
2018-02-18 06:21:00,15.1,13.5,30.20,ESE,123,0.9,2.0,93,0.00,,,0.00,0.0,meteobridge,2018-02-18 12:21:00,
2018-02-18 06:27:00,15.1,13.5,30.21,SE,125,2.0,3.0,93,0.00,,,0.00,0.0,meteobridge,2018-02-18 12:27:00,
2018-02-18 06:32:00,15.4,14.0,30.20,SE,132,2.9,3.0,94,0.00,,,0.00,0.0,meteobridge,2018-02-18 12:32:00,
2018-02-18 06:37:00,15.6,14.2,30.21,SE,132,0.0,2.0,94,0.00,,,0.00,0.0,meteobridge,2018-02-18 12:37:00,
2018-02-18 06:42:00,15.6,14.2,30.21,SE,143,0.9,3.0,94,0.00,,,0.00,0.0,meteobridge,2018-02-18 12:42:00,
2018-02-18 06:47:00,16.0,14.5,30.20,SE,130,2.0,3.0,94,0.00,,,0.00,5.0,meteobridge,2018-02-18 12:47:00,
2018-02-18 06:52:00,16.0,14.4,30.19,ESE,109,2.9,4.0,93,0.00,,,0.00,7.0,meteobridge,2018-02-18 12:52:00,
2018-02-18 06:57:00,15.8,14.2,30.19,ESE,109,2.0,4.0,93,0.00,,,0.00,9.0,meteobridge,2018-02-18 12:57:00,
2018-02-18 07:02:00,16.0,14.5,30.19,ESE,113,2.9,4.0,94,0.00,,,0.00,12.0,meteobridge,2018-02-18 13:02:00,
2018-02-18 07:07:00,16.3,14.9,30.19,ESE,113,0.9,3.0,94,0.00,,,0.00,12.0,meteobridge,2018-02-18 13:07:00,
2018-02-18 07:12:00,16.5,15.1,30.20,ESE,115,2.0,3.0,94,0.00,,,0.00,21.0,meteobridge,2018-02-18 13:12:00,
2018-02-18 07:17:00,16.9,15.4,30.20,ESE,117,0.0,2.0,94,0.00,,,0.00,28.0,meteobridge,2018-02-18 13:17:00,
2018-02-18 07:22:00,17.1,15.6,30.21,SSE,160,2.0,4.0,94,0.00,,,0.00,32.0,meteobridge,2018-02-18 13:22:00,
2018-02-18 07:27:00,17.2,15.8,30.21,SSE,159,0.0,2.0,94,0.00,,,0.00,35.0,meteobridge,2018-02-18 13:27:00,
2018-02-18 07:32:00,17.6,16.2,30.20,SE,146,0.9,3.0,94,0.00,,,0.00,44.0,meteobridge,2018-02-18 13:32:00,
2018-02-18 07:37:00,17.8,16.3,30.21,SE,144,0.0,2.0,94,0.00,,,0.00,51.0,meteobridge,2018-02-18 13:37:00,
2018-02-18 07:42:00,17.8,16.3,30.21,SE,142,2.0,3.0,94,0.00,,,0.00,56.0,meteobridge,2018-02-18 13:42:00,
2018-02-18 07:47:00,17.8,16.3,30.21,SE,134,2.0,3.0,94,0.00,,,0.00,60.0,meteobridge,2018-02-18 13:47:00,
2018-02-18 07:52:00,18.0,16.5,30.20,SE,136,2.0,3.0,94,0.00,,,0.00,67.0,meteobridge,2018-02-18 13:52:00,
2018-02-18 07:57:00,18.1,16.7,30.20,SE,128,2.0,3.0,94,0.00,,,0.00,77.0,meteobridge,2018-02-18 13:57:00,
2018-02-18 08:02:00,18.5,17.1,30.19,ESE,119,0.9,4.0,94,0.00,,,0.00,84.0,meteobridge,2018-02-18 14:02:00,
2018-02-18 08:07:00,18.7,17.2,30.19,SE,125,2.9,4.0,94,0.00,,,0.00,91.0,meteobridge,2018-02-18 14:07:00,
2018-02-18 08:12:00,19.0,17.8,30.20,ESE,122,2.9,4.0,95,0.00,,,0.00,98.0,meteobridge,2018-02-18 14:12:00,
2018-02-18 08:17:00,19.6,18.3,30.20,SE,140,0.9,2.0,95,0.00,,,0.00,105.0,meteobridge,2018-02-18 14:17:00,
2018-02-18 08:22:00,19.9,18.7,30.20,South,183,4.0,4.0,95,0.00,,,0.00,111.0,meteobridge,2018-02-18 14:22:00,
2018-02-18 08:27:00,20.1,18.9,30.20,South,180,2.0,4.0,95,0.00,,,0.00,116.0,meteobridge,2018-02-18 14:27:00,
2018-02-18 08:33:00,20.3,19.0,30.20,South,169,0.9,7.0,95,0.00,,,0.00,128.0,meteobridge,2018-02-18 14:33:00,
2018-02-18 08:38:00,20.7,19.4,30.20,SSE,162,0.9,5.0,95,0.00,,,0.00,141.0,meteobridge,2018-02-18 14:38:00,
2018-02-18 08:43:00,20.8,19.6,30.20,SSW,198,2.9,4.0,95,0.00,,,0.00,163.0,meteobridge,2018-02-18 14:43:00,
2018-02-18 08:48:00,21.4,20.1,30.20,South,173,2.9,5.0,95,0.00,,,0.00,178.0,meteobridge,2018-02-18 14:48:00,
2018-02-18 08:53:00,21.7,20.5,30.20,South,190,2.9,5.0,95,0.00,,,0.00,236.0,meteobridge,2018-02-18 14:53:00,
2018-02-18 08:58:00,22.1,20.8,30.20,SSE,152,2.0,5.0,95,0.00,,,0.00,178.0,meteobridge,2018-02-18 14:58:00,
2018-02-18 09:03:00,22.5,21.2,30.20,SE,126,2.9,5.0,95,0.00,,,0.00,128.0,meteobridge,2018-02-18 15:03:00,
2018-02-18 09:08:00,22.8,21.6,30.20,SSE,165,4.9,7.0,95,0.00,,,0.00,294.0,meteobridge,2018-02-18 15:08:00,
2018-02-18 09:13:00,23.5,22.6,30.20,South,173,2.0,6.0,96,0.00,,,0.00,304.0,meteobridge,2018-02-18 15:13:00,
2018-02-18 09:18:00,24.1,23.2,30.20,South,177,2.0,6.0,96,0.00,,,0.00,315.0,meteobridge,2018-02-18 15:18:00,
2018-02-18 09:23:00,24.4,23.2,30.21,South,188,4.9,7.0,95,0.00,,,0.00,329.0,meteobridge,2018-02-18 15:23:00,
2018-02-18 09:28:00,24.6,23.4,30.21,South,188,10.1,10.1,95,0.00,,,0.00,320.0,meteobridge,2018-02-18 15:28:00,
2018-02-18 09:33:00,25.2,23.9,30.21,South,184,11.0,11.0,95,0.00,,,0.00,350.0,meteobridge,2018-02-18 15:33:00,
2018-02-18 09:38:00,25.3,24.1,30.21,SSW,194,11.0,12.0,95,0.00,,,0.00,353.0,meteobridge,2018-02-18 15:38:00,
2018-02-18 09:43:00,25.9,24.4,30.21,South,186,6.9,10.0,94,0.00,,,0.00,332.0,meteobridge,2018-02-18 15:43:00,
2018-02-18 09:48:00,26.2,24.4,30.21,South,174,8.9,10.0,93,0.00,,,0.00,385.0,meteobridge,2018-02-18 15:48:00,
2018-02-18 09:53:00,26.8,24.8,30.21,South,174,6.9,13.0,92,0.00,,,0.00,408.0,meteobridge,2018-02-18 15:53:00,
2018-02-18 09:58:00,27.1,24.6,30.21,SSW,196,8.1,13.0,90,0.00,,,0.00,413.0,meteobridge,2018-02-18 15:58:00,
2018-02-18 10:03:00,27.9,24.8,30.21,South,190,8.9,12.0,88,0.00,,,0.00,434.0,meteobridge,2018-02-18 16:03:00,
2018-02-18 10:08:00,28.6,25.0,30.20,SSE,165,10.1,12.0,86,0.00,,,0.00,439.0,meteobridge,2018-02-18 16:08:00,
2018-02-18 10:13:00,28.9,24.8,30.20,SSW,198,2.9,12.0,84,0.00,,,0.00,450.0,meteobridge,2018-02-18 16:13:00,
2018-02-18 10:18:00,29.5,24.6,30.19,SSW,195,11.0,22.0,82,0.00,,,0.00,473.0,meteobridge,2018-02-18 16:18:00,
2018-02-18 10:23:00,29.8,24.8,30.19,SSE,159,8.9,16.0,81,0.00,,,0.00,471.0,meteobridge,2018-02-18 16:23:00,
2018-02-18 10:28:00,30.0,25.0,30.18,SSW,207,12.1,15.0,81,0.00,,,0.00,469.0,meteobridge,2018-02-18 16:28:00,
2018-02-18 10:34:00,30.4,25.3,30.18,South,182,4.9,16.0,81,0.00,,,0.00,483.0,meteobridge,2018-02-18 16:34:00,
2018-02-18 10:39:00,30.7,25.3,30.18,SW,215,8.9,12.0,80,0.00,,,0.00,494.0,meteobridge,2018-02-18 16:39:00,
2018-02-18 10:44:00,30.7,25.0,30.17,SSW,203,10.1,14.0,79,0.00,,,0.00,504.0,meteobridge,2018-02-18 16:44:00,
2018-02-18 10:49:00,31.1,25.7,30.17,SSW,196,6.0,13.0,80,0.00,,,0.00,510.0,meteobridge,2018-02-18 16:49:00,
2018-02-18 10:54:00,31.3,25.5,30.17,SSW,204,8.1,13.0,79,0.00,,,0.00,519.0,meteobridge,2018-02-18 16:54:00,
2018-02-18 10:59:00,31.6,25.9,30.17,SSW,196,11.0,13.0,79,0.00,,,0.00,531.0,meteobridge,2018-02-18 16:59:00,
2018-02-18 11:04:00,32.0,25.9,30.17,South,181,8.1,15.0,78,0.00,,,0.00,515.0,meteobridge,2018-02-18 17:04:00,
2018-02-18 11:09:00,32.4,26.2,30.16,South,187,10.1,13.0,78,0.00,,,0.00,519.0,meteobridge,2018-02-18 17:09:00,
2018-02-18 11:14:00,32.4,25.9,30.16,South,187,12.1,15.0,77,0.01,,,0.01,536.0,meteobridge,2018-02-18 17:14:00,
2018-02-18 11:19:00,32.4,25.9,30.16,SSW,200,8.1,18.0,77,0.01,,,0.01,541.0,meteobridge,2018-02-18 17:19:00,
2018-02-18 11:24:00,32.4,26.2,30.16,South,191,8.9,11.0,78,0.01,,,0.01,550.0,meteobridge,2018-02-18 17:24:00,
2018-02-18 11:29:00,32.2,25.7,30.16,SSW,200,12.1,19.0,77,0.01,,,0.01,554.0,meteobridge,2018-02-18 17:29:00,
2018-02-18 11:34:00,31.8,25.5,30.15,SSW,200,6.9,24.0,77,0.01,,,0.01,571.0,meteobridge,2018-02-18 17:34:00,
2018-02-18 11:39:00,31.6,25.3,30.15,SSW,202,21.0,23.0,77,0.01,,,0.01,448.0,meteobridge,2018-02-18 17:39:00,
2018-02-18 11:44:00,31.5,24.8,30.14,SSW,198,16.1,28.0,76,0.01,,,0.01,438.0,meteobridge,2018-02-18 17:44:00,
2018-02-18 11:49:00,31.3,25.0,30.14,South,181,14.1,27.0,77,0.01,,,0.01,420.0,meteobridge,2018-02-18 17:49:00,
2018-02-18 11:54:00,31.1,24.8,30.13,SSW,196,14.1,20.0,77,0.01,,,0.01,450.0,meteobridge,2018-02-18 17:54:00,
2018-02-18 11:59:00,31.3,25.2,30.13,South,188,13.0,17.0,78,0.01,,,0.01,496.0,meteobridge,2018-02-18 17:59:00,
2018-02-18 12:04:00,30.9,24.6,30.12,SSW,198,6.9,21.0,77,0.01,,,0.01,420.0,meteobridge,2018-02-18 18:04:00,
2018-02-18 12:09:00,31.1,25.0,30.12,SSW,200,8.9,18.0,78,0.01,,,0.01,497.0,meteobridge,2018-02-18 18:09:00,
2018-02-18 12:14:00,31.5,25.3,30.11,SSW,193,4.9,12.0,78,0.00,,,0.01,485.0,meteobridge,2018-02-18 18:14:00,
2018-02-18 12:19:00,31.1,25.0,30.11,SE,142,8.9,17.0,78,0.00,,,0.01,432.0,meteobridge,2018-02-18 18:19:00,
2018-02-18 12:25:00,30.9,24.8,30.11,SW,214,15.0,20.0,78,0.00,,,0.01,455.0,meteobridge,2018-02-18 18:25:00,
2018-02-18 12:30:00,30.7,25.0,30.11,SSE,167,8.9,26.0,79,0.00,,,0.01,445.0,meteobridge,2018-02-18 18:30:00,
2018-02-18 12:35:00,30.9,25.2,30.11,South,191,10.1,15.0,79,0.00,,,0.01,487.0,meteobridge,2018-02-18 18:35:00,
2018-02-18 12:40:00,31.5,25.3,30.09,SSE,165,15.0,20.0,78,0.00,,,0.01,466.0,meteobridge,2018-02-18 18:40:00,
2018-02-18 12:45:00,31.5,25.3,30.09,South,169,12.1,20.0,78,0.00,,,0.01,434.0,meteobridge,2018-02-18 18:45:00,
2018-02-18 12:50:00,31.6,25.5,30.08,SSW,197,10.1,13.0,78,0.00,,,0.01,427.0,meteobridge,2018-02-18 18:50:00,
2018-02-18 12:55:00,31.8,25.7,30.08,SSW,198,8.9,14.0,78,0.00,,,0.01,429.0,meteobridge,2018-02-18 18:55:00,
2018-02-18 13:00:00,32.2,25.7,30.08,SSW,198,10.1,13.0,77,0.00,,,0.01,446.0,meteobridge,2018-02-18 19:00:00,
2018-02-18 13:05:00,32.7,26.2,30.08,SE,141,10.1,10.1,77,0.00,,,0.01,522.0,meteobridge,2018-02-18 19:05:00,
2018-02-18 13:10:00,32.7,26.1,30.08,SSW,198,8.9,15.0,76,0.00,,,0.01,499.0,meteobridge,2018-02-18 19:10:00,
2018-02-18 13:15:00,33.1,26.4,30.06,SE,138,2.9,12.0,76,0.00,,,0.01,445.0,meteobridge,2018-02-18 19:15:00,
2018-02-18 13:20:00,33.1,26.4,30.05,SSE,154,11.0,12.0,76,0.00,,,0.01,468.0,meteobridge,2018-02-18 19:20:00,
2018-02-18 13:25:00,33.1,26.1,30.04,ESE,123,2.0,14.0,75,0.00,,,0.01,478.0,meteobridge,2018-02-18 19:25:00,
2018-02-18 13:30:00,32.9,25.9,30.04,South,180,14.1,22.0,75,0.00,,,0.01,439.0,meteobridge,2018-02-18 19:30:00,
2018-02-18 13:35:00,32.7,25.7,30.03,South,191,8.1,14.0,75,0.00,,,0.01,411.0,meteobridge,2018-02-18 19:35:00,
2018-02-18 13:40:00,33.1,26.4,30.03,SE,134,8.1,14.0,76,0.00,,,0.01,388.0,meteobridge,2018-02-18 19:40:00,
2018-02-18 13:45:00,32.7,25.7,30.03,South,177,10.1,16.0,75,0.00,,,0.01,404.0,meteobridge,2018-02-18 19:45:00,
2018-02-18 13:50:00,32.5,25.9,30.02,South,171,8.9,15.0,76,0.00,,,0.01,394.0,meteobridge,2018-02-18 19:50:00,
2018-02-18 13:55:00,32.5,25.9,30.02,SSE,161,15.0,15.0,76,0.00,,,0.01,380.0,meteobridge,2018-02-18 19:55:00,
2018-02-18 14:00:00,32.5,25.9,30.01,SE,141,6.9,14.0,76,0.00,,,0.01,408.0,meteobridge,2018-02-18 20:00:00,
2018-02-18 14:06:00,32.5,26.1,30.00,SW,218,2.9,17.0,77,0.00,,,0.01,388.0,meteobridge,2018-02-18 20:06:00,
2018-02-18 14:11:00,32.7,26.2,30.00,SSW,192,4.0,17.0,77,0.00,,,0.01,394.0,meteobridge,2018-02-18 20:11:00,
2018-02-18 14:16:00,32.9,26.4,30.00,South,188,4.9,16.0,77,0.00,,,0.01,401.0,meteobridge,2018-02-18 20:16:00,
2018-02-18 14:21:00,33.1,26.6,30.00,SSW,196,6.0,16.0,77,0.00,,,0.01,394.0,meteobridge,2018-02-18 20:21:00,
2018-02-18 14:26:00,33.4,27.0,29.99,South,172,10.1,10.1,77,0.00,,,0.01,436.0,meteobridge,2018-02-18 20:26:00,
2018-02-18 14:31:00,33.6,27.1,29.99,ESE,109,10.1,12.0,77,0.00,,,0.01,408.0,meteobridge,2018-02-18 20:31:00,
2018-02-18 14:36:00,33.6,26.8,29.99,SSE,156,6.0,14.0,76,0.00,,,0.01,443.0,meteobridge,2018-02-18 20:36:00,
2018-02-18 14:42:00,34.2,27.3,29.99,South,176,10.1,17.0,76,0.00,,,0.01,413.0,meteobridge,2018-02-18 20:42:00,
2018-02-18 14:47:00,34.3,27.5,29.98,SSE,155,2.0,12.0,76,0.00,,,0.01,432.0,meteobridge,2018-02-18 20:47:00,
2018-02-18 14:52:00,34.5,27.5,29.98,South,183,13.0,15.0,75,0.00,,,0.01,436.0,meteobridge,2018-02-18 20:52:00,
2018-02-18 14:57:00,34.5,27.7,29.98,South,184,11.0,14.0,76,0.00,,,0.01,374.0,meteobridge,2018-02-18 20:57:00,
2018-02-18 15:02:00,34.9,27.7,29.98,South,178,6.0,16.0,75,0.00,,,0.01,374.0,meteobridge,2018-02-18 21:02:00,
2018-02-18 15:07:00,34.9,27.7,29.97,SSW,198,6.9,15.0,75,0.00,,,0.01,388.0,meteobridge,2018-02-18 21:07:00,
2018-02-18 15:12:00,34.5,27.5,29.97,SSE,157,6.0,16.0,75,0.00,,,0.01,322.0,meteobridge,2018-02-18 21:12:00,
2018-02-18 15:17:00,34.3,27.3,29.97,SSE,153,4.9,16.0,75,0.00,,,0.01,330.0,meteobridge,2018-02-18 21:17:00,
2018-02-18 15:22:00,34.3,27.3,29.97,SE,128,13.0,16.0,75,0.00,,,0.01,278.0,meteobridge,2018-02-18 21:22:00,
2018-02-18 15:27:00,34.2,27.3,29.96,ESE,119,4.9,10.0,76,0.00,,,0.01,258.0,meteobridge,2018-02-18 21:27:00,
2018-02-18 15:32:00,34.0,27.1,29.96,SE,136,4.9,15.0,76,0.00,,,0.01,214.0,meteobridge,2018-02-18 21:32:00,
2018-02-18 15:37:00,33.6,26.8,29.96,SE,145,8.9,12.0,76,0.00,,,0.01,221.0,meteobridge,2018-02-18 21:37:00,
2018-02-18 15:42:00,33.6,26.8,29.95,SSE,157,4.9,17.0,76,0.00,,,0.01,207.0,meteobridge,2018-02-18 21:42:00,
2018-02-18 15:47:00,33.3,26.8,29.95,ESE,105,13.0,14.0,77,0.00,,,0.01,192.0,meteobridge,2018-02-18 21:47:00,
2018-02-18 15:52:00,33.1,26.6,29.94,SSE,154,8.9,17.0,77,0.00,,,0.01,179.0,meteobridge,2018-02-18 21:52:00,
2018-02-18 15:57:00,32.7,26.2,29.93,SE,127,8.1,13.0,77,0.00,,,0.01,149.0,meteobridge,2018-02-18 21:57:00,
2018-02-18 16:02:00,32.5,26.4,29.93,SSE,161,6.0,18.0,78,0.00,,,0.01,142.0,meteobridge,2018-02-18 22:02:00,
2018-02-18 16:07:00,32.5,26.4,29.93,SSE,148,10.1,16.0,78,0.00,,,0.01,141.0,meteobridge,2018-02-18 22:07:00,
2018-02-18 16:12:00,32.4,26.6,29.93,South,180,4.0,11.0,79,0.00,,,0.01,111.0,meteobridge,2018-02-18 22:12:00,
2018-02-18 16:17:00,32.4,26.6,29.93,South,176,4.9,14.0,79,0.00,,,0.01,105.0,meteobridge,2018-02-18 22:17:00,
2018-02-18 16:22:00,32.4,27.0,29.92,SE,131,14.1,14.1,80,0.00,,,0.01,93.0,meteobridge,2018-02-18 22:22:00,
2018-02-18 16:27:00,32.2,26.8,29.92,ESE,123,4.9,16.0,80,0.00,,,0.01,91.0,meteobridge,2018-02-18 22:27:00,
2018-02-18 16:32:00,32.4,27.0,29.91,South,186,12.1,13.0,80,0.00,,,0.01,84.0,meteobridge,2018-02-18 22:32:00,
2018-02-18 16:37:00,32.4,27.0,29.92,SSE,155,6.9,14.0,80,0.00,,,0.01,70.0,meteobridge,2018-02-18 22:37:00,